TimeEDT,TemperatureF,Dew PointF,Humidity,Sea Level PressureIn,VisibilityMPH,Wind Direction,Wind SpeedMPH,Gust SpeedMPH,PrecipitationIn,Events,Conditions,WindDirDegrees,DateUTC
12:14 AM,40.8,39.7,96,29.80,5.0,South,8.1,16.1,N/A,Rain,Light Rain,190,2013-03-31 04:14:00
12:34 AM,40.8,39.9,97,29.79,5.0,SSW,6.9,-,N/A,Rain,Rain,200,2013-03-31 04:34:00
12:54 AM,41.0,40.3,97,29.78,5.0,South,9.2,-,N/A,,Drizzle,190,2013-03-31 04:54:00
1:14 AM,41.0,40.5,98,29.77,5.0,South,10.4,17.3,N/A,,Drizzle,190,2013-03-31 05:14:00
1:35 AM,41.2,40.6,98,29.76,5.0,South,10.4,18.4,N/A,,Drizzle,190,2013-03-31 05:35:00
1:54 AM,41.0,40.5,98,29.75,4.0,SSW,10.4,16.1,N/A,Rain,Light Rain,200,2013-03-31 05:54:00
2:15 AM,41.4,41.0,99,29.74,4.0,SSW,10.4,16.1,N/A,Rain,Light Rain,200,2013-03-31 06:15:00
2:34 AM,41.4,41.0,99,29.73,3.0,SSW,8.1,-,N/A,,Light Drizzle,210,2013-03-31 06:34:00
2:54 AM,41.0,41.0,100,29.72,2.0,SSW,9.2,-,N/A,,Drizzle,210,2013-03-31 06:54:00
3:15 AM,41.2,41.2,100,29.72,2.0,SW,6.9,-,N/A,,Light Drizzle,230,2013-03-31 07:15:00
3:34 AM,40.8,40.8,100,29.71,2.0,WSW,9.2,-,N/A,,Overcast,250,2013-03-31 07:34:00
3:54 AM,40.1,40.1,100,29.70,2.0,WSW,12.7,-,N/A,,Overcast,240,2013-03-31 07:54:00
4:14 AM,39.2,39.2,100,29.70,0.5,WSW,10.4,-,N/A,Fog,Fog,250,2013-03-31 08:14:00
4:34 AM,38.3,38.3,100,29.69,0.5,WSW,8.1,-,N/A,Fog,Fog,250,2013-03-31 08:34:00
4:55 AM,38.1,38.1,100,29.69,0.5,WSW,6.9,-,N/A,Fog,Fog,240,2013-03-31 08:55:00
5:14 AM,37.8,37.8,100,29.68,0.5,WSW,9.2,-,N/A,Fog,Fog,250,2013-03-31 09:14:00
5:34 AM,37.4,37.4,100,29.68,0.5,West,9.2,-,N/A,Fog,Fog,260,2013-03-31 09:34:00
5:54 AM,37.0,37.0,100,29.67,0.5,West,9.2,-,N/A,Fog,Fog,260,2013-03-31 09:54:00
6:14 AM,36.5,36.5,100,29.67,0.2,West,10.4,-,N/A,Fog,Fog,260,2013-03-31 10:14:00
6:35 AM,35.6,35.6,100,29.67,0.2,West,8.1,-,N/A,Fog,Fog,260,2013-03-31 10:35:00
6:54 AM,34.7,34.7,100,29.67,0.2,West,8.1,-,N/A,Fog,Fog,260,2013-03-31 10:54:00
7:14 AM,34.2,34.2,100,29.67,0.5,WSW,6.9,-,N/A,Fog,Fog,250,2013-03-31 11:14:00
7:34 AM,34.0,34.0,100,29.67,0.2,WSW,6.9,-,N/A,Fog,Fog,250,2013-03-31 11:34:00
7:54 AM,33.8,33.8,100,29.67,0.2,West,8.1,-,N/A,Fog,Fog,260,2013-03-31 11:54:00
8:14 AM,33.8,33.8,100,29.67,0.2,WSW,8.1,-,N/A,Fog,Fog,250,2013-03-31 12:14:00
8:34 AM,33.8,33.8,100,29.67,0.2,WSW,6.9,-,N/A,Fog,Fog,250,2013-03-31 12:34:00
8:55 AM,34.2,34.2,100,29.66,0.2,SSW,4.6,-,N/A,Fog,Fog,210,2013-03-31 12:55:00
9:14 AM,34.7,34.7,100,29.66,0.2,SW,3.5,-,N/A,Fog,Fog,230,2013-03-31 13:14:00
9:34 AM,35.1,35.1,100,29.64,0.2,SSW,4.6,-,N/A,Fog,Fog,210,2013-03-31 13:34:00
9:55 AM,35.6,35.6,100,29.63,0.2,SSW,4.6,-,N/A,Fog,Fog,210,2013-03-31 13:55:00
10:14 AM,36.1,36.1,100,29.63,0.5,SW,6.9,-,N/A,Fog,Fog,220,2013-03-31 14:14:00
10:34 AM,36.5,36.5,100,29.63,1.5,SW,6.9,-,N/A,,Overcast,230,2013-03-31 14:34:00
10:55 AM,36.7,36.7,100,29.62,2.0,SW,10.4,17.3,N/A,,Overcast,220,2013-03-31 14:55:00
11:14 AM,37.0,37.0,100,29.62,2.5,SW,10.4,-,N/A,,Overcast,230,2013-03-31 15:14:00
11:35 AM,37.0,37.0,100,29.62,2.0,WSW,9.2,-,N/A,,Overcast,240,2013-03-31 15:35:00
11:55 AM,36.7,36.7,100,29.63,0.8,WSW,13.8,20.7,N/A,,Overcast,240,2013-03-31 15:55:00
12:14 PM,35.8,35.8,100,29.62,0.5,SW,12.7,23.0,N/A,Fog,Fog,230,2013-03-31 16:14:00
12:35 PM,35.8,35.8,100,29.62,1.0,SW,13.8,-,N/A,,Overcast,230,2013-03-31 16:35:00
12:55 PM,36.1,36.1,100,29.62,1.8,WSW,15.0,21.9,N/A,,Overcast,240,2013-03-31 16:55:00
1:14 PM,36.0,36.0,100,29.62,3.0,WSW,16.1,20.7,N/A,,Overcast,240,2013-03-31 17:14:00
1:35 PM,36.3,36.3,100,29.61,4.0,SW,16.1,21.9,N/A,,Overcast,230,2013-03-31 17:35:00
1:54 PM,37.0,36.5,98,29.61,5.0,SW,12.7,20.7,N/A,,Overcast,230,2013-03-31 17:54:00
2:14 PM,38.3,36.7,94,29.61,5.0,SW,15.0,18.4,N/A,,Overcast,220,2013-03-31 18:14:00
2:35 PM,38.3,36.1,92,29.61,5.0,SW,12.7,19.6,N/A,,Overcast,220,2013-03-31 18:35:00
2:54 PM,39.0,36.3,90,29.61,5.0,SSW,11.5,19.6,N/A,,Overcast,210,2013-03-31 18:54:00
3:15 PM,39.6,35.8,86,29.60,5.0,SSW,15.0,19.6,N/A,,Overcast,210,2013-03-31 19:15:00
3:34 PM,41.0,35.8,82,29.61,5.0,SW,11.5,16.1,N/A,,Haze,230,2013-03-31 19:34:00
3:54 PM,41.9,35.6,78,29.60,7.0,SW,15.0,19.6,N/A,,Overcast,220,2013-03-31 19:54:00
4:15 PM,42.1,35.6,78,29.60,7.0,SW,16.1,21.9,N/A,,Overcast,230,2013-03-31 20:15:00
4:34 PM,41.0,34.9,79,29.60,7.0,WSW,17.3,21.9,N/A,,Overcast,240,2013-03-31 20:34:00
4:54 PM,39.2,34.3,83,29.60,7.0,WSW,12.7,23.0,N/A,Rain,Light Rain,240,2013-03-31 20:54:00
5:14 PM,38.3,34.7,87,29.60,4.0,WSW,18.4,28.8,N/A,Rain,Light Rain,250,2013-03-31 21:14:00
5:34 PM,37.0,35.8,95,29.61,3.0,West,16.1,24.2,N/A,Rain,Light Rain,260,2013-03-31 21:34:00
5:55 PM,35.6,35.1,98,29.62,5.0,West,12.7,-,N/A,Rain,Light Rain,260,2013-03-31 21:55:00
6:14 PM,35.6,35.2,99,29.62,7.0,West,11.5,-,N/A,Rain,Light Rain,270,2013-03-31 22:14:00
6:34 PM,36.0,34.2,93,29.62,10.0,West,16.1,-,N/A,,Overcast,280,2013-03-31 22:34:00
6:55 PM,36.5,32.7,86,29.63,10.0,West,15.0,-,N/A,,Overcast,270,2013-03-31 22:55:00
7:14 PM,35.8,32.9,89,29.63,10.0,West,13.8,20.7,N/A,,Overcast,260,2013-03-31 23:14:00
7:34 PM,35.8,32.0,86,29.64,10.0,West,15.0,-,N/A,,Overcast,280,2013-03-31 23:34:00
8:14 PM,32.0,27.5,83,29.69,10.0,NW,18.4,27.6,N/A,,Overcast,320,2013-04-01 00:14:00
8:35 PM,32.0,27.1,82,29.70,10.0,NW,19.6,28.8,N/A,,Overcast,320,2013-04-01 00:35:00
8:54 PM,31.1,23.9,75,29.72,10.0,NW,21.9,32.2,N/A,,Overcast,320,2013-04-01 00:54:00
9:14 PM,30.7,23.5,75,29.72,10.0,NW,19.6,31.1,N/A,,Overcast,310,2013-04-01 01:14:00
9:34 PM,29.8,22.8,75,29.73,10.0,NW,25.3,36.8,N/A,,Overcast,320,2013-04-01 01:34:00
9:54 PM,29.8,21.2,70,29.74,10.0,NW,26.5,32.2,N/A,,Scattered Clouds,310,2013-04-01 01:54:00
10:14 PM,29.8,22.3,73,29.75,10.0,NW,23.0,31.1,N/A,,Mostly Cloudy,310,2013-04-01 02:14:00
10:34 PM,29.1,20.8,71,29.77,10.0,WNW,23.0,31.1,N/A,,Overcast,300,2013-04-01 02:34:00
10:55 PM,28.9,21.4,73,29.77,10.0,WNW,19.6,34.5,N/A,,Mostly Cloudy,300,2013-04-01 02:55:00
11:14 PM,28.8,21.0,73,29.77,10.0,WNW,19.6,31.1,N/A,,Mostly Cloudy,300,2013-04-01 03:14:00
11:35 PM,28.2,20.7,73,29.77,10.0,WNW,23.0,32.2,N/A,,Mostly Cloudy,290,2013-04-01 03:35:00
11:54 PM,28.2,21.0,74,29.77,10.0,WNW,20.7,31.1,N/A,,Mostly Cloudy,300,2013-04-01 03:54:00